This is the latest recevied weather packets stored in our database for station/object VE3VGJ. If no packets are shown the sender has not sent any weather packets the latest 10 day(s).
| Time | Temp. | Humidity | Pressure | Rain* | Wind** | Luminosity | Snow |
|---|---|---|---|---|---|---|---|
| 1777798582 | -2.22° C | 83% | 1013.5 hPa | 0 mm | - | 0 W/m² | - |
| 1777798280 | -2.22° C | 82% | 1013.4 hPa | 0 mm | - | 0 W/m² | - |
| 1777797976 | -2.22° C | 82% | 1013.5 hPa | 0 mm | - | 0 W/m² | - |
| 1777797674 | -2.22° C | 82% | 1013.5 hPa | 0 mm | - | 0 W/m² | - |
| 1777797371 | -1.67° C | 82% | 1013.3 hPa | 0 mm | - | 0 W/m² | - |
| 1777797068 | -2.22° C | 83% | 1013.3 hPa | 0 mm | - | 0 W/m² | - |
| 1777796765 | -2.22° C | 82% | 1013.5 hPa | 0 mm | - | 0 W/m² | - |
| 1777796462 | -1.67° C | 81% | 1013.6 hPa | 0 mm | - | 0 W/m² | - |
| 1777796162 | -1.67° C | 81% | 1013.4 hPa | 0 mm | - | 0 W/m² | - |
| 1777795859 | -1.67° C | 81% | 1013.4 hPa | 0 mm | - | 0 W/m² | - |
| 1777795554 | -1.67° C | 80% | 1013.4 hPa | 0 mm | - | 0 W/m² | - |
| 1777795252 | -1.11° C | 80% | 1013.5 hPa | 0 mm | - | 0 W/m² | - |
| 1777794949 | -1.11° C | 80% | 1013.5 hPa | 0 mm | - | 0 W/m² | - |
| 1777794645 | -1.67° C | 80% | 1013.5 hPa | 0 mm | - | 0 W/m² | - |
| 1777794340 | -1.11° C | 80% | 1013.5 hPa | 0 mm | - | 0 W/m² | - |
| 1777794036 | -1.11° C | 80% | 1013.6 hPa | 0 mm | - | 0 W/m² | - |
| 1777793733 | -1.11° C | 81% | 1013.5 hPa | 0 mm | - | 0 W/m² | - |
| 1777793432 | -1.11° C | 80% | 1013.5 hPa | 0 mm | - | 0 W/m² | - |
| 1777793129 | -1.11° C | 79% | 1013.5 hPa | 0 mm | - | 0 W/m² | - |
| 1777792826 | -1.11° C | 79% | 1013.2 hPa | 0 mm | - | 0 W/m² | - |
| 1777792522 | -0.56° C | 77% | 1013.4 hPa | 0 mm | - | 0 W/m² | - |
| 1777792219 | -0.56° C | 76% | 1013.4 hPa | 0 mm | - | 0 W/m² | - |
| 1777791916 | 0° C | 75% | 1013.7 hPa | 0 mm | - | 0 W/m² | - |
| 1777791614 | 0° C | 74% | 1013.5 hPa | 0 mm | - | 0 W/m² | - |
| 1777791311 | 0° C | 75% | 1013.4 hPa | 0 mm | - | 0 W/m² | - |
* Rain latest hour (hover to see other rain measurements)
** Current wind speed in m/s (hover to see current wind gust speed)